[[{"header":{"parameterUnit":"m.s-1","parameterCategory":1,"la1":30.2991,"la2":30.254,"lo1":-89.0895,"lo2":-89.0444,"dy":0.0017,"dx":0.0017,"nx":28,"ny":28,"refTime":"2023-08-10T09:00:00:Z","depth":0,"parameterNumber":2,"parameterNumberName":"U-component_of_WINDS"},"data":[0,0,0,0,0,0,0,0,0,0,0,0,0,0,0,0,0,0,0,0,0,0,0,0,0,0,0,0,0,0,0,0,0,0,0,0,0,0,0,0,0,0,0,0,0,0,0,0,0,0,0,0,0,0,0,0,0,0,1.4558,1.4558,0,1.4589,1.4589,1.459,1.4602,1.4601,1.4601,1.4601,1.4635,1.4636,1.4637,0,0,0,0,0,0,0,0,0,0,0,0,0,1.4512,1.4513,1.4558,1.4558,1.4558,1.4589,1.4589,1.459,1.4602,1.4601,1.4601,1.4601,1.4634,1.4636,1.4637,0,0,0,0,0,0,0,0,0,0,0,0,0,1.4537,1.4513,1.4558,1.4568,1.4569,1.4589,1.4589,1.459,1.4602,1.4601,1.4601,1.4601,1.4634,1.4635,1.4637,1.4649,0,0,1.4641,1.4642,0,0,0,0,0,0,0,0,1.4535,1.4538,1.4566,1.4567,1.4569,1.4591,1.4586,1.461,1.4602,1.4589,1.4601,1.4601,1.462,1.4623,1.4629,1.465,1.4652,1.4642,1.4642,1.4643,1.4643,0,0,0,0,0,0,0,1.4534,1.4537,1.457,1.4566,1.4568,1.4572,1.4576,1.459,1.4605,1.459,1.4591,1.4595,1.4621,1.4628,1.463,1.4652,1.4642,1.4643,1.4644,1.4644,1.4689,1.4689,0,0,0,0,0,0,1.453,1.4536,1.4569,1.4571,1.4551,1.4573,1.4577,1.4584,1.4605,1.4608,1.4595,1.4595,1.4625,1.4628,1.4631,1.4649,1.4643,1.4644,1.4645,1.4688,1.4689,1.4689,0,0,0,0,0,0,1.4529,1.4533,1.4568,1.4554,1.4558,1.4574,1.4582,1.4585,1.4591,1.4609,1.4612,1.4599,1.4625,1.4629,1.4645,1.465,1.4645,1.4646,1.4688,1.4689,1.4689,1.4682,0,0,0,0,0,0,1.4527,1.4532,1.4535,1.4554,1.4559,1.4579,1.4582,1.4585,1.4594,1.4594,1.4613,1.4616,1.4626,1.4643,1.4647,1.4652,1.4648,1.4688,1.4688,1.4689,1.4682,1.4682,1.4682,0,0,0,0,0,1.4526,1.4532,1.4536,1.454,1.4563,1.458,1.4583,1.4594,1.4594,1.4598,1.461,1.4615,1.4649,1.4644,1.4649,1.4654,1.4687,1.4688,1.4689,1.4681,1.4682,1.4682,0,0,0,0,0,0,1.4514,1.4534,1.4539,1.455,1.4563,1.4582,1.4587,1.4593,1.4606,1.4606,1.462,1.4624,1.4639,1.4649,1.4643,1.4669,1.4669,1.467,1.4662,1.4662,1.4663,1.466,1.4649,0,0,0,0,0,1.4512,1.4523,1.4541,1.455,1.4556,1.4571,1.4578,1.4586,1.46,1.4605,1.4618,1.4632,1.4646,1.4655,1.4668,1.4684,1.4689,1.469,1.469,1.4691,1.4691,1.4703,1.4704,1.4691,1.4691,1.4691,0,0,1.451,1.4522,1.4528,1.4548,1.4558,1.4571,1.4575,1.4587,1.4596,1.4607,1.4623,1.4633,1.465,1.4666,1.4674,1.4674,1.4697,1.4691,1.4691,1.4692,1.4704,1.4705,1.4706,1.4692,1.4692,1.4692,0,0,1.4511,1.4521,1.4531,1.4542,1.4559,1.4569,1.4571,1.459,1.4597,1.4613,1.4622,1.4635,1.4658,1.4671,1.468,1.4691,1.4697,1.4695,1.4696,1.4707,1.4708,1.4709,1.4714,1.4716,1.4696,1.4696,1.4696,0,1.4505,1.4523,1.4535,1.4547,1.4556,1.4568,1.4579,1.4589,1.461,1.4617,1.4617,1.4649,1.4661,1.4682,1.4685,1.4691,1.4696,1.4692,1.4707,1.4708,1.4709,1.4714,1.4716,1.4696,1.4696,1.4696,1.4696,0,1.4516,1.4529,1.4535,1.4554,1.4565,1.4576,1.4592,1.4601,1.4609,1.462,1.4639,1.4654,1.4673,1.4678,1.4685,1.4701,1.4701,1.4704,1.4704,1.471,1.4715,1.4717,1.4696,1.4696,1.4696,1.4696,0,0,1.4508,1.4537,1.4539,1.4549,1.457,1.458,1.4594,1.4612,1.4621,1.4636,1.4649,1.467,1.4674,1.4685,1.4695,1.4704,1.4714,1.4707,1.4708,1.4708,1.4735,1.4732,1.4734,1.4719,1.472,1.472,1.4734,0,1.4512,1.4535,1.4548,1.4567,1.458,1.4593,1.4605,1.4621,1.4632,1.4646,1.466,1.4675,1.4679,1.4686,1.4696,1.4711,1.472,1.471,1.4733,1.4733,1.4727,1.4737,1.4733,1.4745,1.4736,1.4736,1.4736,0,1.4519,1.4534,1.4554,1.4577,1.4583,1.4593,1.4613,1.4625,1.4645,1.4653,1.4667,1.4677,1.4694,1.4694,1.472,1.4713,1.4724,1.4733,1.4734,1.4735,1.4734,1.4739,1.4749,1.4751,1.4739,1.4739,1.4739,0,1.4512,1.4538,1.4553,1.4562,1.4588,1.4596,1.4607,1.4626,1.4638,1.4656,1.4663,1.4683,1.4694,1.471,1.4726,1.4724,1.4751,1.4752,1.4759,1.4759,1.4763,1.4762,1.4775,1.477,1.477,1.477,1.477,0,1.4515,1.4526,1.4551,1.456,1.4575,1.4592,1.4607,1.462,1.4637,1.4651,1.4665,1.4678,1.4698,1.4715,1.4728,1.4748,1.4753,1.4762,1.4765,1.476,1.4759,1.4766,1.4766,1.4771,1.4771,1.477,1.477,0,1.4508,1.4524,1.4543,1.4567,1.4574,1.4584,1.4606,1.4617,1.4631,1.4649,1.4654,1.4676,1.4697,1.4715,1.4742,1.4752,1.4773,1.4777,1.4766,1.4767,1.4774,1.4774,1.4791,1.4795,1.4788,1.4788,1.4788,0,1.4508,1.4517,1.4544,1.4554,1.4566,1.4582,1.4594,1.4612,1.4624,1.4649,1.4658,1.468,1.4698,1.4731,1.475,1.4772,1.4777,1.4782,1.478,1.4776,1.4778,1.4777,1.4779,1.4782,1.4782,1.4782,1.4782,0,1.4507,1.4516,1.4532,1.4552,1.4566,1.4583,1.4601,1.4609,1.4631,1.4645,1.4666,1.468,1.4709,1.4732,1.4756,1.477,1.478,1.4783,1.4786,1.478,1.4774,1.4778,1.4766,1.4781,1.4781,1.4781,1.4781,1.4781,1.4504,1.4514,1.4535,1.4553,1.4569,1.4586,1.4598,1.4615,1.4633,1.4657,1.4668,1.469,1.4713,1.4748,1.4762,1.4782,1.4783,1.4787,1.4788,1.4789,1.4789,1.4772,1.4786,1.4786,1.4786,1.4786,1.4786,0,1.4504,1.4519,1.4536,1.456,1.4576,1.4585,1.4606,1.4619,1.4638,1.4658,1.4677,1.4703,1.4726,1.4749,1.4773,1.4784,1.479,1.479,1.4789,1.4793,1.4785,1.478,1.4786,1.4786,1.4786,1.4786,1.4786,1.4786,1.4505,1.4524,1.4536,1.4563,1.4578,1.46,1.4611,1.4628,1.4645,1.4673,1.4692,1.4707,1.473,1.4757,1.4779,1.4786,1.4794,1.4793,1.4801,1.4793,1.4793,1.4793,1.4788,1.4795,1.4795,1.4807,1.4807,1.4807]},{"header":{"parameterUnit":"m.s-1","parameterCategory":1,"la1":30.2991,"la2":30.254,"lo1":-89.0895,"lo2":-89.0444,"dy":0.0017,"dx":0.0017,"nx":28,"ny":28,"refTime":"2023-08-10T09:00:00:Z","depth":0,"parameterNumber":3,"parameterNumberName":"V-component_of_WINDS"},"data":[0,0,0,0,0,0,0,0,0,0,0,0,0,0,0,0,0,0,0,0,0,0,0,0,0,0,0,0,0,0,0,0,0,0,0,0,0,0,0,0,0,0,0,0,0,0,0,0,0,0,0,0,0,0,0,0,0,0,3.5984,3.5986,0,3.614,3.6142,3.6144,3.6185,3.6184,3.6183,3.6183,3.6335,3.634,3.6345,0,0,0,0,0,0,0,0,0,0,0,0,0,3.5711,3.5716,3.5984,3.5986,3.5988,3.614,3.6142,3.6144,3.6185,3.6184,3.6183,3.6182,3.6333,3.6339,3.6345,0,0,0,0,0,0,0,0,0,0,0,0,0,3.5844,3.5717,3.5984,3.6027,3.6032,3.614,3.6142,3.6145,3.6186,3.6184,3.6183,3.6182,3.6331,3.6339,3.6346,3.6419,0,0,3.6368,3.6372,0,0,0,0,0,0,0,0,3.5837,3.5854,3.6019,3.6024,3.603,3.6142,3.6102,3.6236,3.6186,3.6127,3.6183,3.6181,3.6271,3.6284,3.6316,3.6426,3.6432,3.6369,3.6374,3.6377,3.6379,0,0,0,0,0,0,0,3.5827,3.5848,3.6046,3.6021,3.6028,3.6035,3.6053,3.6127,3.6205,3.6132,3.6136,3.6154,3.6274,3.6309,3.632,3.6435,3.6369,3.6375,3.638,3.6383,3.6607,3.6608,0,0,0,0,0,0,3.5812,3.584,3.6041,3.605,3.5928,3.6041,3.6061,3.6107,3.6204,3.6218,3.6155,3.6155,3.6297,3.6311,3.6325,3.6414,3.6377,3.6384,3.6388,3.6605,3.6607,3.6609,0,0,0,0,0,0,3.5806,3.5829,3.6034,3.5946,3.5973,3.6047,3.6099,3.6111,3.6146,3.6222,3.6235,3.6176,3.6296,3.6315,3.6394,3.642,3.6387,3.6394,3.6603,3.6606,3.6608,3.6593,0,0,0,0,0,0,3.5798,3.5827,3.5858,3.5947,3.5977,3.6104,3.6101,3.6115,3.6159,3.6161,3.6245,3.6258,3.6296,3.6383,3.6402,3.6429,3.6399,3.6601,3.6604,3.6607,3.6592,3.6595,3.6597,0,0,0,0,0,3.5788,3.5847,3.586,3.5884,3.6018,3.6106,3.6123,3.6169,3.6161,3.6191,3.6239,3.6255,3.6414,3.6391,3.6412,3.6442,3.66,3.6604,3.6607,3.659,3.6594,3.6597,0,0,0,0,0,0,3.5759,3.586,3.5875,3.5965,3.6027,3.6113,3.6152,3.6172,3.6235,3.6234,3.6285,3.6304,3.6379,3.6419,3.6392,3.6515,3.6507,3.6514,3.6487,3.6491,3.6493,3.6482,3.6405,0,0,0,0,0,3.5763,3.5829,3.5912,3.5984,3.6014,3.6077,3.6117,3.6147,3.6212,3.6237,3.6292,3.6351,3.6414,3.6455,3.6517,3.6597,3.6614,3.6628,3.663,3.6632,3.6638,3.6679,3.6685,3.662,3.662,3.662,0,0,3.5772,3.5835,3.5874,3.5979,3.6031,3.6093,3.6099,3.6167,3.6213,3.6247,3.6326,3.6367,3.6436,3.6515,3.6553,3.6551,3.6659,3.6637,3.6637,3.6642,3.6683,3.6689,3.6694,3.6622,3.6622,3.6621,0,0,3.5821,3.5877,3.5941,3.5992,3.6069,3.6111,3.6125,3.6208,3.6237,3.6317,3.6343,3.6396,3.6505,3.6553,3.6591,3.6653,3.6668,3.6671,3.6685,3.6724,3.6729,3.6734,3.6753,3.6759,3.6677,3.6677,3.6677,0,3.5822,3.5921,3.597,3.6036,3.608,3.6115,3.6177,3.6223,3.6316,3.6343,3.634,3.6475,3.6524,3.6613,3.6627,3.6658,3.6674,3.6662,3.6725,3.673,3.6735,3.6754,3.6761,3.6676,3.6676,3.6676,3.6677,0,3.5916,3.5984,3.6025,3.6116,3.6164,3.6227,3.6283,3.6325,3.6349,3.6389,3.6467,3.6527,3.6601,3.6624,3.6648,3.6715,3.6711,3.6715,3.6708,3.674,3.6758,3.6766,3.6676,3.6676,3.6676,3.6676,0,0,3.5952,3.6067,3.6081,3.6121,3.6207,3.6259,3.6321,3.6395,3.6429,3.649,3.6541,3.6631,3.6635,3.6678,3.6707,3.6741,3.6782,3.6742,3.6744,3.6745,3.6854,3.6849,3.6857,3.6792,3.6794,3.6795,3.6847,0,3.601,3.6127,3.6171,3.6265,3.6325,3.6357,3.6411,3.6467,3.6505,3.6559,3.66,3.6662,3.6664,3.669,3.6725,3.6769,3.6804,3.6766,3.6837,3.6839,3.6818,3.6867,3.6862,3.6909,3.6855,3.6856,3.6857,0,3.6093,3.6157,3.6257,3.6332,3.6359,3.6407,3.6476,3.6529,3.6591,3.6616,3.6663,3.6689,3.6751,3.6739,3.6824,3.6797,3.6828,3.6853,3.6856,3.6863,3.6849,3.6873,3.6925,3.6931,3.6869,3.6868,3.6867,0,3.6106,3.6216,3.6289,3.6323,3.6413,3.6445,3.6484,3.6546,3.6586,3.6644,3.667,3.6734,3.6769,3.6816,3.6857,3.6846,3.6936,3.6929,3.6955,3.6954,3.6973,3.6971,3.7028,3.6995,3.6995,3.6995,3.6995,0,3.6164,3.6223,3.6296,3.6341,3.6406,3.6455,3.6517,3.6557,3.6611,3.6661,3.6692,3.6737,3.679,3.6841,3.6873,3.6935,3.6951,3.697,3.6978,3.6967,3.6964,3.6987,3.6985,3.6997,3.6996,3.6996,3.6996,0,3.6189,3.6241,3.6322,3.6401,3.6422,3.6466,3.6532,3.6574,3.6613,3.6675,3.6693,3.6752,3.6814,3.6859,3.6939,3.696,3.7026,3.7034,3.7005,3.7009,3.7032,3.7028,3.7105,3.7116,3.7077,3.7077,3.7077,0,3.6223,3.6269,3.6352,3.6389,3.6428,3.6487,3.6528,3.6576,3.6616,3.6689,3.6721,3.6785,3.6839,3.6934,3.6982,3.7042,3.7051,3.7074,3.706,3.7046,3.7049,3.7045,3.7048,3.7075,3.7075,3.7076,3.7076,0,3.6275,3.6298,3.6357,3.6424,3.6472,3.6527,3.6582,3.6609,3.6665,3.6709,3.6773,3.6814,3.6895,3.6956,3.702,3.7056,3.7074,3.708,3.7088,3.7077,3.7058,3.7066,3.7008,3.7078,3.7077,3.7077,3.7077,3.7077,3.6304,3.6345,3.641,3.6473,3.652,3.6569,3.6612,3.6656,3.6711,3.6782,3.6806,3.6871,3.6927,3.7015,3.7051,3.71,3.71,3.7113,3.7116,3.7119,3.7117,3.7051,3.7112,3.7112,3.7112,3.7112,3.7112,0,3.6356,3.6398,3.6457,3.6533,3.6581,3.6596,3.6657,3.6695,3.6753,3.6806,3.6858,3.6929,3.6988,3.704,3.71,3.7129,3.7138,3.7143,3.7141,3.7148,3.7115,3.71,3.7134,3.7134,3.7134,3.7134,3.7134,3.7134,3.6388,3.6458,3.6487,3.6578,3.662,3.6686,3.6718,3.6763,3.6805,3.6884,3.6934,3.6968,3.7019,3.7083,3.7136,3.7149,3.7169,3.7171,3.7186,3.7153,3.7151,3.7148,3.7134,3.7175,3.7175,3.7215,3.7215,3.7215]}]]